{"data":{"norad_id":60151,"epoch":"2026-05-24T19:41:33.455040Z","epoch_age_seconds":101023,"freshness":"FRESH","line1":"1 60151U 24120S   26144.82052610 -.00000284  00000+0  25266-5 0  9993","line2":"2 60151  53.1604 326.1955 0001212  92.3279 267.7861 15.30189497108118","mean_motion":15.30189497,"eccentricity":0.0001212,"inclination_deg":53.1604,"raan_deg":326.1955,"arg_perigee_deg":92.3279,"mean_anomaly_deg":267.7861,"bstar":2.5266e-6,"rev_number":10811,"period_min":94.105991631963,"perigee_km":474.41579959184,"apogee_km":476.0770597352,"semimajor_km":6853.3834296635,"source":"CELESTRAK","updated_at":"2026-05-25T13:38:19.191415Z"}}